This is the latest recevied weather packets stored in our database for station/object OK1ALX-6. If no packets are shown the sender has not sent any weather packets the latest 10 day(s).
| Time | Temp. | Humidity | Pressure | Rain* | Wind** | Luminosity | Snow |
|---|---|---|---|---|---|---|---|
| 1788510603 | 21.67° C | 69% | 1021.6 hPa | 0 mm | - | 143 W/m² | - |
| 1788510003 | 21.11° C | 70% | 1021.9 hPa | 0 mm | - | 229 W/m² | - |
| 1788509403 | 21.11° C | 69% | 1022.3 hPa | 0 mm | - | 161 W/m² | - |
| 1788508803 | 21.11° C | 70% | 1021.8 hPa | 0 mm | - | 165 W/m² | - |
| 1788508203 | 20.56° C | 70% | 1022.2 hPa | 0 mm | - | 429 W/m² | - |
| 1788507603 | 20° C | 72% | 1021.9 hPa | 0 mm | - | 106 W/m² | - |
| 1788507003 | 20° C | 74% | 1022.2 hPa | 0 mm | - | 119 W/m² | - |
| 1788506403 | 19.44° C | 76% | 1022.1 hPa | 0 mm | - | 97 W/m² | - |
| 1788505803 | 19.44° C | 77% | 1022.7 hPa | 0 mm | - | 113 W/m² | - |
| 1788505203 | 18.89° C | 77% | 1022.8 hPa | 0 mm | - | 112 W/m² | - |
| 1788504603 | 18.89° C | 77% | 1022.5 hPa | 0 mm | - | 62 W/m² | - |
| 1788504003 | 18.89° C | 76% | 1022.7 hPa | 0 mm | - | 56 W/m² | - |
| 1788503403 | 19.44° C | 72% | 1022.4 hPa | 0 mm | - | 98 W/m² | - |
| 1788502803 | 19.44° C | 72% | 1022.6 hPa | 0 mm | - | 41 W/m² | - |
| 1788502203 | 18.89° C | 72% | 1022.6 hPa | 0 mm | - | 45 W/m² | - |
| 1788501603 | 18.89° C | 73% | 1022.7 hPa | 0 mm | - | 33 W/m² | - |
| 1788501003 | 18.89° C | 73% | 1022.5 hPa | 0 mm | - | 22 W/m² | - |
| 1788500403 | 18.89° C | 73% | 1022.6 hPa | 0 mm | - | 29 W/m² | - |
| 1788499803 | 18.33° C | 74% | 1022.8 hPa | 0 mm | - | 16 W/m² | - |
| 1788499203 | 18.33° C | 74% | 1022.7 hPa | 0 mm | - | 22 W/m² | - |
| 1788498603 | 18.33° C | 75% | 1022.5 hPa | 0 mm | - | 22 W/m² | - |
| 1788498003 | 18.33° C | 75% | 1022.5 hPa | 0 mm | - | 25 W/m² | - |
| 1788497403 | 18.33° C | 75% | 1022.6 hPa | 0 mm | - | 15 W/m² | - |
| 1788496803 | 18.33° C | 75% | 1022.4 hPa | 0 mm | - | 11 W/m² | - |
| 1788496203 | 18.33° C | 75% | 1022.5 hPa | 0 mm | - | 5 W/m² | - |
* Rain latest hour (hover to see other rain measurements)
** Current wind speed in m/s (hover to see current wind gust speed)